BAW365 LFPG-EGLL

Flight info

Callsign BAW365
Flight time 0h 39m
Altitude 20000
Route OPALE DCT KESAX DCT DIMAL DCT ALESO
Aircraft A21N/M-SDE2E3FGHIRWXY/LB1

Departure

Time 2026-05-05 04:20
Airport Charles de Gaulle International Airport (LFPG)

Arrival

Time 2026-05-05 05:00
Airport London Heathrow Airport (EGLL)
Time Latitude Longitude Altitude Speed Heading
2026-05-05 03:53 49.00190 2.55844 360 ft 0 kts 63°
2026-05-05 04:12 49.00187 2.55834 363 ft 4 kts 62°
2026-05-05 04:13 49.00173 2.55798 366 ft 4 kts 60°
2026-05-05 04:13 49.00163 2.55770 360 ft 4 kts 69°
2026-05-05 04:13 49.00159 2.55733 360 ft 4 kts 110°
2026-05-05 04:13 49.00170 2.55716 360 ft 1 kts 163°
2026-05-05 04:17 49.00167 2.55717 360 ft 2 kts 163°
2026-05-05 04:17 49.00142 2.55728 360 ft 6 kts 163°
2026-05-05 04:17 49.00093 2.55730 360 ft 9 kts 210°
2026-05-05 04:18 49.00027 2.55670 362 ft 13 kts 198°
2026-05-05 04:18 48.99934 2.55723 360 ft 16 kts 128°
2026-05-05 04:18 48.99826 2.55803 363 ft 19 kts 179°
2026-05-05 04:18 48.99705 2.55811 361 ft 18 kts 170°
2026-05-05 04:19 48.99604 2.55897 360 ft 19 kts 94°
2026-05-05 04:19 48.99624 2.56213 364 ft 56 kts 85°
2026-05-05 04:19 48.99678 2.57133 357 ft 116 kts 86°
2026-05-05 04:19 48.99746 2.58609 360 ft 161 kts 85°
2026-05-05 04:20 48.99809 2.60334 817 ft 159 kts 86°
2026-05-05 04:20 48.99876 2.62031 1279 ft 168 kts 79°
2026-05-05 04:20 49.00023 2.63850 1749 ft 180 kts 84°
2026-05-05 04:20 49.00131 2.65916 2014 ft 206 kts 84°
2026-05-05 04:21 49.00249 2.68194 2410 ft 231 kts 84°
2026-05-05 04:21 49.00381 2.70742 3030 ft 248 kts 85°
2026-05-05 04:21 49.00519 2.73437 3874 ft 255 kts 85°
2026-05-05 04:21 49.00658 2.76156 4762 ft 260 kts 85°
2026-05-05 04:22 49.00800 2.78921 5630 ft 264 kts 85°
2026-05-05 04:22 49.00942 2.81697 6492 ft 268 kts 85°
2026-05-05 04:22 49.01131 2.84547 7299 ft 272 kts 77°
2026-05-05 04:22 49.01914 2.87162 8154 ft 276 kts 53°
2026-05-05 04:23 49.03348 2.89116 8995 ft 280 kts 30°
2026-05-05 04:23 49.05201 2.90073 9840 ft 286 kts
2026-05-05 04:23 49.07216 2.89835 10392 ft 303 kts 343°
2026-05-05 04:23 49.09124 2.88254 10731 ft 326 kts 323°
2026-05-05 04:24 49.10988 2.86086 11046 ft 347 kts 325°
2026-05-05 04:24 49.13017 2.83908 11351 ft 367 kts 326°
2026-05-05 04:24 49.15162 2.81623 11647 ft 384 kts 325°
2026-05-05 04:25 49.19631 2.76826 12783 ft 397 kts 325°
2026-05-05 04:25 49.21904 2.74374 13432 ft 401 kts 325°
2026-05-05 04:25 49.24192 2.71900 13993 ft 405 kts 325°
2026-05-05 04:25 49.26499 2.69390 14537 ft 409 kts 324°
2026-05-05 04:26 49.28827 2.66848 15065 ft 412 kts 325°
2026-05-05 04:26 49.31169 2.64305 15605 ft 415 kts 325°
2026-05-05 04:26 49.33536 2.61723 16126 ft 418 kts 325°
2026-05-05 04:26 49.35925 2.59131 16560 ft 423 kts 325°
2026-05-05 04:27 49.38335 2.56528 17034 ft 426 kts 325°
2026-05-05 04:27 49.40774 2.53873 17494 ft 430 kts 324°
2026-05-05 04:27 49.43217 2.51186 17985 ft 432 kts 324°
2026-05-05 04:27 49.45669 2.48487 18449 ft 435 kts 324°
2026-05-05 04:28 49.48143 2.45776 18880 ft 437 kts 324°
2026-05-05 04:28 49.50622 2.43052 19323 ft 439 kts 324°
2026-05-05 04:28 49.53118 2.40308 19713 ft 441 kts 324°
2026-05-05 04:28 49.55628 2.37548 19920 ft 448 kts 324°
2026-05-05 04:29 49.58195 2.34723 19958 ft 460 kts 324°
2026-05-05 04:29 49.60805 2.31865 19941 ft 459 kts 324°
2026-05-05 04:29 49.63382 2.29038 19927 ft 461 kts 324°
2026-05-05 04:29 49.66000 2.26136 19924 ft 458 kts 324°
2026-05-05 04:30 49.68589 2.23251 19925 ft 459 kts 324°
2026-05-05 04:30 49.71156 2.20401 19917 ft 458 kts 324°
2026-05-05 04:30 49.73753 2.17525 19915 ft 462 kts 324°
2026-05-05 04:30 49.76371 2.14651 19922 ft 464 kts 324°
2026-05-05 04:31 49.78991 2.11768 19923 ft 460 kts 324°
2026-05-05 04:31 49.81603 2.08874 19929 ft 461 kts 324°
2026-05-05 04:31 49.84182 2.05985 19927 ft 458 kts 323°
2026-05-05 04:31 49.86775 2.03065 19932 ft 462 kts 324°
2026-05-05 04:32 49.89367 2.00141 19933 ft 460 kts 323°
2026-05-05 04:32 49.91977 1.97209 19934 ft 461 kts 324°
2026-05-05 04:32 49.94558 1.94318 19934 ft 462 kts 324°
2026-05-05 04:32 49.97187 1.91390 19932 ft 463 kts 324°
2026-05-05 04:33 49.99798 1.88469 19936 ft 462 kts 324°
2026-05-05 04:33 50.02394 1.85551 19938 ft 461 kts 324°
2026-05-05 04:33 50.05000 1.82604 19939 ft 462 kts 323°
2026-05-05 04:33 50.07602 1.79661 19947 ft 463 kts 324°
2026-05-05 04:34 50.10223 1.76724 19943 ft 464 kts 324°
2026-05-05 04:34 50.12836 1.73789 19947 ft 461 kts 324°
2026-05-05 04:34 50.15433 1.70856 19946 ft 463 kts 324°
2026-05-05 04:34 50.17163 1.68895 19950 ft 461 kts 324°
2026-05-05 04:35 50.20599 1.64989 19949 ft 462 kts 324°
2026-05-05 04:35 50.23209 1.62018 19958 ft 461 kts 324°
2026-05-05 04:35 50.25816 1.59049 19955 ft 464 kts 324°
2026-05-05 04:35 50.28428 1.56071 19957 ft 465 kts 324°
2026-05-05 04:36 50.31032 1.53095 19957 ft 462 kts 324°
2026-05-05 04:36 50.33636 1.50114 19960 ft 462 kts 324°
2026-05-05 04:36 50.36228 1.47148 19962 ft 460 kts 324°
2026-05-05 04:36 50.38820 1.44174 19961 ft 464 kts 324°
2026-05-05 04:37 50.41419 1.41189 19962 ft 461 kts 324°
2026-05-05 04:37 50.44017 1.38197 19964 ft 463 kts 324°
2026-05-05 04:37 50.46597 1.35223 19962 ft 462 kts 324°
2026-05-05 04:37 50.48310 1.33243 19962 ft 459 kts 324°
2026-05-05 04:38 50.50885 1.30252 19961 ft 460 kts 323°
2026-05-05 04:38 50.53464 1.27267 19963 ft 458 kts 324°
2026-05-05 04:38 50.56032 1.24299 19963 ft 461 kts 324°
2026-05-05 04:38 50.58496 1.21071 19962 ft 459 kts 316°
2026-05-05 04:39 50.60765 1.17515 19973 ft 461 kts 315°
2026-05-05 04:39 50.63034 1.13923 19972 ft 464 kts 315°
2026-05-05 04:39 50.65313 1.10317 19972 ft 461 kts 314°
2026-05-05 04:39 50.67568 1.06750 19975 ft 458 kts 314°
2026-05-05 04:40 50.69811 1.03193 19979 ft 457 kts 314°
2026-05-05 04:40 50.72047 0.99640 19981 ft 459 kts 314°
2026-05-05 04:40 50.74314 0.96027 19983 ft 458 kts 314°
2026-05-05 04:40 50.76526 0.92504 19983 ft 457 kts 314°
2026-05-05 04:41 50.78797 0.88882 19981 ft 459 kts 314°
2026-05-05 04:41 50.81010 0.85348 19979 ft 458 kts 314°
2026-05-05 04:41 50.83275 0.81728 19977 ft 459 kts 314°
2026-05-05 04:41 50.85514 0.78140 19974 ft 458 kts 314°
2026-05-05 04:42 50.87755 0.74548 19982 ft 458 kts 314°
2026-05-05 04:42 50.89989 0.70958 19991 ft 457 kts 314°
2026-05-05 04:42 50.92201 0.67402 19999 ft 457 kts 314°
2026-05-05 04:42 50.94463 0.63764 20006 ft 457 kts 314°
2026-05-05 04:43 50.96697 0.60166 20012 ft 457 kts 314°
2026-05-05 04:43 50.98922 0.56574 20020 ft 457 kts 314°
2026-05-05 04:43 51.01155 0.52960 20030 ft 457 kts 314°
2026-05-05 04:43 51.03331 0.49431 19814 ft 441 kts 314°
2026-05-05 04:44 51.05462 0.45973 19329 ft 436 kts 314°
2026-05-05 04:44 51.07605 0.42582 18773 ft 432 kts 315°
2026-05-05 04:44 51.09759 0.39290 18182 ft 427 kts 315°
2026-05-05 04:44 51.11895 0.36035 17505 ft 423 kts 316°
2026-05-05 04:45 51.14010 0.32811 16848 ft 418 kts 316°
2026-05-05 04:45 51.16095 0.29623 16193 ft 412 kts 316°
2026-05-05 04:45 51.18144 0.26482 15572 ft 406 kts 316°
2026-05-05 04:45 51.20161 0.23382 14945 ft 400 kts 316°
2026-05-05 04:46 51.22138 0.20347 14282 ft 388 kts 316°
2026-05-05 04:46 51.24053 0.17409 13642 ft 375 kts 316°
2026-05-05 04:46 51.25903 0.14564 12959 ft 364 kts 316°
2026-05-05 04:46 51.27702 0.11792 12294 ft 354 kts 316°
2026-05-05 04:47 51.29451 0.09093 11650 ft 345 kts 316°
2026-05-05 04:47 51.31157 0.06465 11018 ft 337 kts 316°
2026-05-05 04:47 51.32759 0.03782 10389 ft 329 kts 305°
2026-05-05 04:47 51.33696 0.00534 9742 ft 321 kts 281°
2026-05-05 04:48 51.33844 -0.02982 9092 ft 315 kts 270°
2026-05-05 04:48 51.33826 -0.06459 8460 ft 309 kts 270°
2026-05-05 04:48 51.33859 -0.09852 7991 ft 300 kts 272°
2026-05-05 04:48 51.33945 -0.13164 7521 ft 295 kts 274°
2026-05-05 04:49 51.34058 -0.16408 7036 ft 291 kts 274°
2026-05-05 04:49 51.34184 -0.19616 6549 ft 287 kts 275°
2026-05-05 04:49 51.34320 -0.22774 6040 ft 283 kts 275°
2026-05-05 04:49 51.34459 -0.25897 5524 ft 280 kts 276°
2026-05-05 04:50 51.34597 -0.28974 5015 ft 277 kts 276°
2026-05-05 04:50 51.34733 -0.32027 4487 ft 274 kts 276°
2026-05-05 04:50 51.34869 -0.35052 3989 ft 271 kts 277°
2026-05-05 04:50 51.35003 -0.38049 3549 ft 266 kts 277°
2026-05-05 04:51 51.35132 -0.40968 3303 ft 254 kts 277°
2026-05-05 04:51 51.35254 -0.43696 3116 ft 248 kts 277°
2026-05-05 04:51 51.35374 -0.46395 2973 ft 237 kts 277°
2026-05-05 04:51 51.35486 -0.48958 2939 ft 220 kts 278°
2026-05-05 04:52 51.35590 -0.51331 2944 ft 210 kts 278°
2026-05-05 04:52 51.35695 -0.53624 2966 ft 209 kts 278°
2026-05-05 04:52 51.35801 -0.56008 2979 ft 209 kts 278°
2026-05-05 04:52 51.35904 -0.58332 2987 ft 209 kts 278°
2026-05-05 04:53 51.36004 -0.60657 2992 ft 209 kts 278°
2026-05-05 04:53 51.36102 -0.62982 2990 ft 209 kts 278°
2026-05-05 04:53 51.36202 -0.65304 2992 ft 209 kts 278°
2026-05-05 04:53 51.36364 -0.67614 2982 ft 206 kts 291°
2026-05-05 04:54 51.36899 -0.69719 2992 ft 205 kts 296°
2026-05-05 04:54 51.37677 -0.71553 2983 ft 198 kts 326°
2026-05-05 04:54 51.38918 -0.72353 2987 ft 193 kts 359°
2026-05-05 04:54 51.40251 -0.72146 3002 ft 193 kts 12°
2026-05-05 04:55 51.41485 -0.71637 3034 ft 171 kts 15°
2026-05-05 04:55 51.42567 -0.71144 3005 ft 156 kts 15°
2026-05-05 04:55 51.43562 -0.70373 2993 ft 163 kts 38°
2026-05-05 04:55 51.44399 -0.69148 3005 ft 163 kts 40°
2026-05-05 04:56 51.45228 -0.67893 2999 ft 164 kts 44°
2026-05-05 04:56 51.45807 -0.66309 3042 ft 166 kts 62°
2026-05-05 04:56 51.46177 -0.64591 3009 ft 152 kts 71°
2026-05-05 04:56 51.46311 -0.62998 2645 ft 139 kts 81°
2026-05-05 04:57 51.46316 -0.61467 2226 ft 136 kts 86°
2026-05-05 04:57 51.46306 -0.59947 1886 ft 136 kts 84°
2026-05-05 04:57 51.46409 -0.58455 1617 ft 135 kts 77°
2026-05-05 04:57 51.46500 -0.56947 1394 ft 136 kts 85°
2026-05-05 04:58 51.46458 -0.55432 1166 ft 136 kts 91°
2026-05-05 04:58 51.46427 -0.53908 885 ft 135 kts 82°
2026-05-05 04:58 51.46507 -0.52421 673 ft 137 kts 89°
2026-05-05 04:58 51.46481 -0.50897 458 ft 136 kts 89°
2026-05-05 04:59 51.46465 -0.49365 277 ft 136 kts 88°
2026-05-05 04:59 51.46472 -0.47867 100 ft 130 kts 87°
2026-05-05 04:59 51.46482 -0.46552 94 ft 101 kts 88°
2026-05-05 04:59 51.46488 -0.45589 91 ft 72 kts 88°
2026-05-05 05:00 51.46491 -0.45072 94 ft 6 kts 88°
2026-05-05 05:00 51.46495 -0.44924 94 ft 18 kts 79°
2026-05-05 05:00 51.46569 -0.44788 96 ft 12 kts 43°
2026-05-05 05:00 51.46604 -0.44733 94 ft 0 kts 44°
2026-05-05 05:01 51.46614 -0.44719 94 ft 3 kts 41°
2026-05-05 05:01 51.46643 -0.44717 92 ft 7 kts 311°
2026-05-05 05:01 51.46668 -0.44799 92 ft 10 kts 274°
2026-05-05 05:02 51.46663 -0.44929 92 ft 13 kts 269°
2026-05-05 05:02 51.46663 -0.45087 92 ft 15 kts 270°
2026-05-05 05:02 51.46662 -0.45267 92 ft 17 kts 270°
2026-05-05 05:02 51.46661 -0.45466 91 ft 19 kts 269°
2026-05-05 05:03 51.46660 -0.45687 91 ft 20 kts 270°
2026-05-05 05:03 51.46660 -0.45843 91 ft 21 kts 270°
2026-05-05 05:03 51.46660 -0.46175 95 ft 23 kts 269°
2026-05-05 05:03 51.46659 -0.46429 95 ft 25 kts 270°
2026-05-05 05:04 51.46658 -0.46707 95 ft 26 kts 270°
2026-05-05 05:04 51.46657 -0.47019 95 ft 28 kts 270°
2026-05-05 05:04 51.46656 -0.47322 93 ft 29 kts 270°
2026-05-05 05:04 51.46655 -0.47646 91 ft 14 kts 269°
2026-05-05 05:05 51.46654 -0.47783 91 ft 13 kts 269°
2026-05-05 05:05 51.46653 -0.47941 92 ft 15 kts 269°
2026-05-05 05:05 51.46652 -0.48122 92 ft 17 kts 270°
2026-05-05 05:05 51.46653 -0.48322 92 ft 19 kts 270°
2026-05-05 05:06 51.46711 -0.48473 93 ft 21 kts 28°
2026-05-05 05:06 51.46746 -0.48432 92 ft 0 kts 49°
2026-05-05 05:07 51.46745 -0.48434 92 ft 1 kts 49°
2026-05-05 05:07 51.46739 -0.48445 93 ft 2 kts 49°
2026-05-05 05:08 51.46721 -0.48463 93 ft 5 kts 11°
2026-05-05 05:08 51.46707 -0.48466 92 ft 0 kts
2026-05-05 05:08 51.46724 -0.48468 93 ft 4 kts 355°
2026-05-05 05:08 51.46770 -0.48469 92 ft 9 kts
2026-05-05 05:09 51.46845 -0.48468 92 ft 13 kts
2026-05-05 05:09 51.46950 -0.48469 93 ft 17 kts 359°
2026-05-05 05:09 51.47058 -0.48471 95 ft 0 kts 359°
2026-05-05 05:09 51.47065 -0.48471 95 ft 3 kts 359°
2026-05-05 05:10 51.47087 -0.48492 93 ft 6 kts 290°
2026-05-05 05:10 51.47087 -0.48561 91 ft 0 kts 269°
2026-05-05 05:10 51.47087 -0.48563 91 ft 1 kts 271°
2026-05-05 05:10 51.47087 -0.48581 91 ft 0 kts 270°